Powrót do katalogu

ONEWEB-0354

AktywnyŁącznośćPO
NORAD 49217·PAYLOAD·🇬🇧 United Kingdom

Wystrzelony Sep 14, 2021 z Baikonur Cosmodrome

Loading…

Następne Przeloty (najbliższe 24 godziny)

TLE

ŚwieżeSource: CelesTrak SupGP

Epoka: Sep 14, 2026, 15:00 UTC

1 49217C 21083AH  26257.62549028 -.00001520  00000+0 -37436-2 0  2576
2 49217  87.9142 256.5977 0001759 102.4845   7.0095 13.20773892    17

Śledź ONEWEB-0354 w czasie rzeczywistym z AllMySat

Download on the App Store